{"data":{"norad_id":55410,"epoch":"2026-05-25T01:05:12.154848Z","epoch_age_seconds":71868,"freshness":"FRESH","line1":"1 55410U 23014V   26145.04527957  .00000168  00000+0  21838-4 0  9992","line2":"2 55410  69.9993 251.7659 0003459 269.1761  90.9002 14.98330033183006","mean_motion":14.98330033,"eccentricity":0.0003459,"inclination_deg":69.9993,"raan_deg":251.7659,"arg_perigee_deg":269.1761,"mean_anomaly_deg":90.9002,"bstar":2.1838e-5,"rev_number":18300,"period_min":96.106997008983,"perigee_km":569.65171720896,"apogee_km":574.45986058032,"semimajor_km":6950.1927888946,"source":"CELESTRAK","updated_at":"2026-05-25T13:38:17.796528Z"}}